Regional Weather Roundup
Issued by NWS Wakefield, VA

Home | Current Version | Previous Version | Graphics & Text | Print | Product List | Glossary On
Versions: 1 2 3 4 5 6 7 8 9 10 11 12 13 14 15 16 17 18 19 20 21 22 23 24 25 26 27 28 29 30 31 32 33 34 35 36 37 38 39 40 41 42 43 44 45 46 47 48 49 50
000
ASUS41 KAKQ 010310
RWRAKQ

REGIONAL WEATHER ROUNDUP
NATIONAL WEATHER SERVICE WAKEFIELD VA
1100 PM EDT THU JUL 31 2014

Note: "fair" indicates few or no clouds below 12,000 feet with no
significant weather and/or obstructions to visibility. * = Denotes
station may not report precipitation (e.g., rain,snow,etc.),
thunder or fog.

VAZ042-051-052>054-056-010400-
NORTHERN VIRGINIA

CITY           SKY/WX    TMP DP  RH WIND       PRES   REMARKS
WASH NATIONAL  MOCLDY    79  65  62 S8        30.13S
DULLES         PTCLDY    73  63  70 S5        30.13S
FORT BELVOIR   MOCLDY    69  66  89 SE1       30.13S
QUANTICO       MOCLDY    76  67  73 SW3       30.14R
FREDERICKSBRG* MOCLDY    73  67  81 CALM      30.12S
STAFFORD*      MOCLDY    67  67 100 CALM      30.18R
WARRENTON      MOCLDY    72  70  91 S3        30.13S
CULPEPER*      MOCLDY   N/A N/A N/A CALM      30.14R
MANASSAS*      MOCLDY    70  68  94 CALM      30.13S
LEESBURG*      PTCLDY    72  66  83 SW3       30.14R
WINCHESTER     PTCLDY    66  63  88 CALM      30.13S
$$

VAZ048-049-060>072-079>083-010400-
CENTRAL AND SOUTH CENTRAL VIRGINIA...AND NORTH CENTRAL NORTH CAROLINA

CITY           SKY/WX    TMP DP  RH WIND       PRES   REMARKS
RICHMOND       CLOUDY    75  68  78 S3        30.14S
CHESTERFIELD*  CLOUDY    73  61  64 CALM      30.16S
HANOVER        CLOUDY    71  66  84 CALM      30.16R
TAPPAHANNOCK*  CLOUDY    70  65  85 CALM      30.15S
CHARLOTTSVILLE CLOUDY    72  65  78 S6        30.14S
ORANGE*        MOCLDY    68  64  88 CALM      30.15S
LOUISA*        CLOUDY    72  66  83 CALM      30.14S
FARMVILLE*     CLOUDY    72  63  73 CALM      30.13S
SOUTH HILL*    CLOUDY    73  73 100 CALM      30.21R
ROANOKE RAPIDS CLOUDY    73  68  83 CALM      30.15S
RALEIGH        LGT RAIN  72  69  90 SW6       30.16R FOG
$$

VAZ088>098-010400-
SOUTHEAST VIRGINIA

CITY           SKY/WX    TMP DP  RH WIND       PRES   REMARKS
NORFOLK        MOCLDY    75  64  68 S7        30.16S
VIRGINIA BEACH CLOUDY    75  65  70 SE7       30.15S
NORFOLK NAVAL  MOCLDY    76  64  66 SE8       30.17S
WEST POINT*    MOCLDY    74  67  81 E3        30.16S
NEWPORT NEWS   MOCLDY    79  64  60 S6        30.15S
LANGLEY AFB    MOCLDY    75  65  71 SE6       30.15R
FORT EUSTIS    CLOUDY    76  65  70 S8        30.14R
WILLIAMSBURG*  CLOUDY    79  70  73 S9        30.16S
FRANKLIN*      CLOUDY    73  66  78 SE3       30.15S
WAKEFIELD      CLOUDY    74  68  81 VRB3      30.15S
$$

VAZ020-022-025-037-045-010400-
WESTERN AND SOUTHWEST VIRGINIA

CITY           SKY/WX    TMP DP  RH WIND       PRES   REMARKS
STAUNTON*      CLOUDY    68  62  80 CALM      30.18S
HOT SPRINGS VA CLOUDY    58  53  82 S7        30.29S
LYNCHBURG      CLOUDY    66  66 100 CALM      30.18S
DANVILLE       CLOUDY    72  67  84 CALM      30.16R
MARTINSVILLE   LGT RAIN  68  67  98 CALM      30.20S
ROANOKE        CLOUDY    72  61  68 E8        30.19R
BLACKSBURG     CLOUDY    66  64  94 S3          N/A
DUBLIN*        CLOUDY    67  62  83 CALM      30.23R
MARION*        CLOUDY    65  59  80 NE6       30.24S
HILLSVILLE*    CLOUDY    63  58  85 CALM      30.23S
RICHLANDS*     CLOUDY    69  62  77 CALM      30.20S
WISE*          CLOUDY    66  54  63 S5        30.21R
ABINGDON*      CLOUDY    67  64  89 CALM      30.18S
$$

MDZ021>025-VAZ099-100-010400-
SOUTHERN MARYLAND AND THE DELMARVA PENINSULA

CITY           SKY/WX    TMP DP  RH WIND       PRES   REMARKS
PATUXENT RIVER MOCLDY    73  68  84 S5        30.14S
BAY BRIDGE APT   N/A     77  70  78 S7        30.13S
LEONARDTOWN    PTCLDY    72  64  78 S3        30.16S
DOVER          MOCLDY    71  66  83 S8        30.12S
GEORGETOWN     MOCLDY    72  66  81 S12       30.16R
EASTON         MOCLDY    76  71  83 S6        30.17
CAMBRIDGE      MOCLDY    72  68  88 SE3       30.14S
SALISBURY      MOCLDY    73  66  78 S3        30.16R
OCEAN CITY     MOCLDY    73  69  87 S5        30.16S
WALLOPS ISLAND MOCLDY    74  69  85 S9        30.16S
ACCOMACK*        N/A     72  64  78 S5        30.15F
$$

NCZ012>017-030>032-010400-
EASTERN NORTH CAROLINA

CITY           SKY/WX    TMP DP  RH WIND       PRES   REMARKS
ELIZABETH CITY CLOUDY    75  64  68 SE6       30.16S
AHOSKIE*       CLOUDY    72  66  82 SE3       30.16S
EDENTON*       CLOUDY    75  65  69 SE6       30.16S
CURRITUCK*     CLOUDY    72  61  67 CALM      30.17S
KILL DEVIL HLS CLOUDY    76  65  68 SE5       30.15S
MANTEO         NOT AVBL
CAPE HATTERAS  CLOUDY    79  66  64 E12       30.15S
GOLDSBORO      NOT AVBL
WASHINGTON     MOCLDY    72  65  79 E3        30.15F
GREENVILLE     CLOUDY    73  68  83 CALM      30.16S
NEW BERN       MOCLDY    77  67  71 E6        30.14F
WILMINGTON     CLOUDY    80  69  69 E9        30.11R
$$

VAZ048-010400-
ELSEWHERE

CITY           SKY/WX    TMP DP  RH WIND       PRES   REMARKS
HARRISBURG PA  PTCLDY    73  63  70 CALM      30.11S
BALTIMORE      MOCLDY    75  65  70 S3        30.12R
ANNAPOLIS      MOCLDY    76  65  68 S6        30.13R
ANDREWS AFB    MOCLDY    72  65  79 S3        30.13S
WILMINGTON DE  MOCLDY    76  65  68 S6        30.14S
PHILADELPHIA   MOCLDY    75  67  76 VRB7      30.14S
WILDWOOD NJ*   MOCLDY    72  64  78 S7        30.17S
ATLANTIC CITY  MOCLDY    72  66  81 MISG      30.15S
HENDERSON NC   LGT RAIN  73  68  86 CALM      30.16S
GREENSBORO     LGT RAIN  69  66  90 CALM      30.17R
ROCKY MOUNT    CLOUDY    72  69  90 CALM      30.15R
FAYETTEVILLE   CLOUDY    73  71  93 NE5       30.12S
CHARLOTTE      LGT RAIN  69  67  93 CALM      30.16R
$$

VAZ100-010400-
MARINE

STATION/POSITION TIME  TEMP    WIND        PRES    WAVE   SWELL
                       AIR SEA DIR/SP/G            HT/PER HT/PER
                 (UTC) (F)     (DEG/KT/KT) (MB)    (FT/S) (FT/S)
44066 TX TWR #4  0300   74 75  190/ 12/ 14 1021.6S   3/ 8   2/ 8
CAPE MAY NJ      0300   72 77  170/  6/  7 1020.6R
LEWES DE         0300   74 72  200/  5/  7 1020.8R
15NM E FENWICK I 0300   76 74              1021.3S   3/ 7
OCEAN-CITY-INLET 0300   72 73  210/  4/  5 1020.9S
WACHAPREAGUE VA  0300   76 80  180/  7/ 10 1021.1S
THOMAS POINT MD  0300   77 78  170/ 12/ 13 1020.5F
GOOSES REEF MD   0300   78     190/ 10/ 14 1020.8F
COVE POINT MD    0300   76     190/ 10/ 13 1020.4F
SOLOMONS ISLAND  0300      80                N/A
BISHOPS HEAD MD  0300   77 80  180/ 11/ 14 1020.4S
PINEY POINT MD   0300          190/ 11/ 13   N/A
POTOMAC MD       0300   77     190/ 10/ 12 1020.1R
CAMBRIDGE MD     0300   75 78  160/  2/  6 1020.4S
LEWISETTA VA     0300   75 79  200/  6/  8 1020.4S
RAPPAHANNOCK LGT 0300          150/ 12/ 13 1021.4F
STINGRAY PT      0300   78     170/ 14/ 17 1021.3S
YORK RVR RNG VA  0300   77     180/ 13/ 15 1020.4R
YORKTOWN VA      0300   76 80  160/  5/  6 1020.7R
JAMESTOWN VA     0300   75     180/  8/ 10   N/A
DOMINION TERM VA 0300   76     160/ 11/ 12 1021.0R
KIPTOPEKE VA     0300      81  160/  9/ 10   N/A
CHES BAY BRIDGE  0300   76 77  140/ 11/ 12 1020.6R
CAPE HENRY VA    0300   76     150/  9/ 14 1020.0S
WILLOUBY STN VA  0300          170/ 11/ 12 1020.3R
S CRANEY ISL VA  0300          200/  7/  9 1021.1R
CAPE HENRY BUOY  0300      77                N/A     3/ 8
1ST LANDING BUOY 0300   77     160/  8/ 10 1020.7S
CAPE CHARLES BUO 0300      76                N/A     3/ 7
OFFSHORE WE BUOY 0300      78                N/A     3/ 7
64NM E OF VA BCH 0300   77 78  110/ 12/ 14 1021.3F   2/ 7   2/ 7
DUCK PIER NC     0300   77 77  120/ 12/ 13 1020.6R
44056 DUCK FRF   0300                        N/A     3/ 7
OREGON INLET NC  0300   77 79   80/  7/  9 1021.1S
HATTERAS NC      0300   79 80  110/  9/ 12 1021.2S
DIAMOND SHLS NC  0300          VRB 14/ 17  1020.6S   4/ 6   2/ 8
CAPE LOOKOUT NC  0200   80     100/ 15/ 16 1020.0R
$$


USA.gov is the U.S. government's official web portal to all federal, state and local government web resources and services.